Theta_e
322 322 321 321 318 315 314 315 316 316 317 316 316 315 315 314 313 313 316 316 321 320 320 319 319 320 318 320 319 318 318 318 318 318 320 322 320 320 319 320 320 320 320 321 321 321 321
323 323 322 322 322 320 316 314 314 314 315 315 315 314 313 313 313 313 315 318 321 321 320 319 319 319 320 321 319 319 319 318 319 321 322 321 320 319 318 318 318 319 320 320 321 321 320
328 326 323 322 322 322 321 318 316 314 314 314 314 314 315 315 315 315 316 318 321 320 320 320 319 315 319 321 319 319 319 320 320 319 321 322 321 318 319 319 320 320 319 319 319 319 319
325 326 327 324 322 322 322 321 319 317 316 316 317 318 319 320 320 319 319 320 320 320 320 320 319 313 322 320 320 319 320 322 322 321 321 321 321 319 318 319 319 319 320 321 321 321 320
321 322 326 327 324 322 321 322 321 319 318 319 320 322 322 323 322 322 321 321 321 320 319 318 313 316 322 320 322 322 322 322 322 321 321 320 318 319 320 322 321 322 323 323 324 324 320
322 324 325 326 326 324 323 322 322 321 320 321 322 322 322 322 322 323 322 322 320 318 317 311 313 320 320 322 322 323 319 320 321 318 318 318 318 319 322 323 326 326 327 326 326 325 321
322 324 325 325 325 324 323 322 323 321 322 321 320 320 321 321 322 322 322 317 314 318 316 320 319 319 322 322 317 323 320 318 319 320 320 319 319 322 324 325 325 325 326 326 326 325 324
321 322 325 325 325 325 318 318 319 320 320 320 318 318 319 318 320 320 316 315 320 313 317 318 319 320 320 321 322 320 319 321 320 323 321 321 321 322 323 325 326 326 326 326 325 325 325
319 321 322 323 323 322 319 318 319 317 319 317 318 318 317 318 315 311 310 315 313 313 316 319 320 321 321 321 324 324 322 319 319 321 322 324 325 324 324 324 326 326 327 326 326 326 326
317 320 322 322 322 322 321 318 317 318 318 317 318 317 315 311 309 310 310 312 311 314 319 323 323 322 322 322 322 321 322 324 321 321 323 325 325 326 326 327 327 328 326 327 326 326 329
307 309 312 318 320 319 319 318 319 319 318 317 316 313 311 311 312 314 311 312 313 312 331 323 321 316 319 322 320 320 319 321 325 326 323 325 326 327 328 328 328 328 327 327 327 327 327
306 306 306 307 313 314 314 314 316 316 314 313 310 310 310 310 309 307 309 310 312 321 330 321 317 316 317 320 321 317 318 320 322 325 325 325 324 325 325 325 324 325 326 327 327 325 329
304 305 305 304 305 306 312 312 312 312 311 310 310 311 310 310 311 309 310 312 317 325 321 321 317 317 317 319 319 319 317 321 324 325 326 325 325 324 324 324 323 323 324 329 329 329 330
302 303 304 305 304 304 305 308 311 312 312 311 311 311 310 310 309 310 310 313 319 321 322 318 318 317 317 318 318 318 317 319 321 322 323 324 326 324 323 325 324 323 323 329 331 332 329
304 305 305 305 305 304 303 305 307 311 311 311 310 308 308 308 307 310 312 314 319 319 318 320 320 318 318 317 317 317 317 317 318 320 321 322 321 319 319 322 323 323 323 322 326 326 328
302 303 302 304 305 306 306 307 307 308 310 311 308 307 307 307 307 309 312 316 316 315 315 313 319 318 318 317 317 316 316 316 316 317 317 318 320 318 317 315 317 320 320 323 328 332 328
300 300 300 301 303 303 304 304 304 305 307 308 307 308 303 306 306 310 311 314 313 313 312 315 314 315 315 315 314 317 318 316 316 316 315 316 317 317 317 315 314 315 318 320 320 325 329
299 299 298 298 298 300 301 302 304 303 304 304 301 304 301 304 305 302 311 313 311 312 312 312 310 311 313 314 313 314 314 317 314 314 317 315 317 318 317 317 316 316 316 316 320 322 321
297 297 297 297 297 296 298 301 301 303 303 301 298 298 299 302 308 307 310 311 311 312 312 313 313 312 313 313 314 312 312 312 311 312 315 316 319 316 314 314 316 318 316 316 317 319 319
296 296 296 296 295 296 296 297 300 301 303 302 301 304 300 299 298 304 310 311 312 311 312 312 311 311 311 312 312 313 312 312 311 311 308 312 316 318 315 319 316 318 315 314 314 317 320
294 294 295 296 295 295 294 295 295 299 300 302 304 303 302 305 305 304 306 306 307 310 308 311 313 313 312 313 313 313 312 311 311 312 310 312 314 313 313 313 315 316 315 315 315 315 317
294 294 294 294 294 295 295 295 294 295 299 301 304 305 304 304 303 305 303 307 307 309 306 308 307 308 309 313 314 314 313 313 313 312 312 312 314 312 313 312 314 317 314 313 313 314 314
295 295 294 294 294 294 294 294 295 295 298 300 301 300 303 302 303 305 304 303 303 303 305 305 306 306 306 309 307 307 310 311 312 313 314 314 314 313 315 311 311 314 314 312 310 311 311
295 295 295 295 295 294 294 295 294 295 297 300 300 301 302 302 303 304 303 302 302 301 303 303 303 304 304 304 303 304 305 309 310 311 312 314 316 315 315 312 315 312 310 312 312 310 310
295 295 295 295 294 294 295 294 295 294 294 298 298 299 302 301 299 299 299 302 301 300 301 302 302 301 303 302 303 305 306 306 310 310 310 312 314 315 315 314 311 310 310 310 309 309 309
294 294 295 295 295 294 294 295 294 295 293 296 298 298 300 300 299 298 297 298 298 298 301 301 300 300 299 303 303 306 305 307 308 307 309 310 313 314 315 314 315 313 310 310 309 311 310
293 293 293 294 294 294 293 293 295 294 295 295 296 297 297 300 298 298 297 298 298 297 298 299 298 300 300 301 302 301 303 303 308 309 309 311 312 313 314 313 311 309 308 308 309 310 307
294 293 293 293 293 293 293 293 293 294 295 295 296 298 298 299 298 298 298 297 297 297 298 298 299 301 302 301 300 302 301 302 304 305 307 309 312 313 313 314 313 309 308 310 310 310 308
295 295 294 293 293 293 294 294 293 293 295 294 295 297 297 298 298 297 297 298 298 298 298 299 298 298 302 302 303 302 303 305 305 308 306 309 309 312 312 312 311 309 310 311 311 310 309
Wind_Speed
34 32 32 31 31 30 29 29 28 26 26 25 22 22 20 19 18 18 16 15 16 15 16 17 19 22 17 9 16 18 5 5 6 10 12 12 13 14 15 14 16 16 15 17 20 13 14
35 34 33 31 31 31 30 30 29 28 27 26 24 23 22 20 19 19 18 17 17 16 17 17 19 20 12 19 12 9 6 9 12 15 15 14 11 13 11 16 17 17 19 16 16 17 15
33 36 35 34 33 33 31 30 30 28 28 26 24 23 22 20 19 19 19 18 18 17 19 17 18 15 13 23 16 22 23 21 17 19 15 17 14 9 10 15 12 14 15 18 19 20 21
35 36 37 37 36 34 31 30 30 29 27 26 24 23 22 21 20 18 18 19 19 19 20 20 18 12 10 25 25 27 24 25 23 21 22 21 21 12 15 14 19 18 18 17 18 22 21
40 40 39 37 37 36 33 31 31 29 27 26 24 23 22 20 19 18 18 21 21 22 21 21 12 9 13 20 17 25 23 26 21 23 19 17 12 14 14 16 14 14 15 20 21 18 12
36 39 41 39 34 35 34 34 31 29 27 25 24 24 23 21 20 20 21 23 21 21 15 10 14 10 16 13 18 12 12 13 13 7 10 12 8 11 13 15 15 16 20 18 17 12 14
32 36 38 37 36 31 27 27 27 29 29 26 23 21 21 22 23 23 21 8 5 7 12 13 13 9 5 16 4 14 12 11 12 12 15 14 11 17 22 20 21 20 20 22 18 18 17
31 33 33 37 37 31 22 22 18 23 27 23 23 21 21 21 20 20 13 4 8 4 11 21 26 24 30 29 12 12 14 13 16 20 19 17 20 21 21 21 21 19 16 18 18 18 18
21 29 32 29 31 33 29 28 24 19 20 22 26 24 22 22 17 15 12 13 7 10 6 15 26 31 25 28 27 22 18 18 19 19 20 22 17 25 22 20 20 20 17 18 21 20 22
8 13 24 29 31 32 31 31 30 29 27 26 21 19 15 14 9 7 5 10 2 3 5 10 17 18 26 22 24 18 33 24 22 25 22 23 22 24 23 18 14 20 17 20 21 17 14
14 13 14 15 20 21 27 31 32 32 29 26 21 20 20 18 4 8 4 10 7 2 4 6 10 3 4 17 1 10 23 25 30 25 19 24 19 19 25 26 21 23 20 18 20 14 18
13 12 12 13 15 13 19 26 32 29 27 25 25 24 21 12 8 6 3 8 4 2 9 7 8 9 10 17 16 2 4 16 19 22 21 27 23 21 15 14 15 17 19 18 14 11 16
7 8 7 10 9 8 12 13 14 18 21 22 20 19 17 11 4 9 7 3 2 5 7 9 9 12 15 14 16 14 8 11 12 14 20 25 29 27 23 20 14 14 10 9 9 10 13
13 4 3 2 6 5 6 2 13 12 17 19 19 18 16 10 8 14 8 2 7 9 13 7 1 10 12 12 12 14 13 12 19 18 14 12 11 26 20 27 19 16 15 9 10 11 15
11 9 10 7 4 7 5 3 10 15 21 22 20 20 7 15 12 19 4 4 7 9 5 5 12 10 12 11 7 9 15 15 16 19 15 9 12 3 8 6 18 17 17 17 20 16 9
11 9 6 5 7 11 12 8 5 4 18 26 16 11 4 16 20 11 3 7 10 13 9 3 6 8 7 12 12 14 12 8 11 15 4 7 11 11 5 4 8 12 12 5 1 4 9
10 9 7 7 5 6 5 3 1 1 3 24 7 3 2 14 16 4 5 10 12 17 8 9 12 14 13 15 11 12 10 1 4 10 3 6 8 11 6 6 8 10 12 13 9 6 3
8 8 6 6 4 4 5 4 3 3 8 5 2 3 4 14 4 2 8 8 8 14 14 8 4 9 9 9 11 12 13 3 7 7 8 3 4 10 15 16 8 14 12 10 9 17 7
5 4 4 4 2 2 3 4 5 4 7 6 2 2 5 6 3 3 6 9 9 7 16 13 11 13 14 12 8 10 10 8 5 2 5 3 1 5 9 13 2 5 8 8 11 6 12
5 4 4 2 1 3 2 2 4 6 6 3 3 0 1 1 2 3 6 4 10 7 16 14 17 15 18 17 18 16 18 9 7 9 4 2 5 7 11 1 3 3 4 5 5 3 6
2 3 3 3 1 1 3 2 2 4 6 1 0 4 4 1 2 5 4 1 1 3 8 5 4 16 16 18 18 19 20 19 13 9 8 6 13 14 15 16 12 9 10 14 12 12 7
5 3 3 4 4 3 2 3 4 4 5 6 2 2 4 1 7 7 2 1 2 3 4 5 5 10 10 9 12 10 10 14 12 16 15 13 10 13 17 17 17 16 19 20 19 21 19
8 8 7 6 5 4 4 4 4 5 5 2 3 5 3 3 3 6 6 8 8 7 5 5 2 6 8 7 11 11 12 12 12 13 14 12 11 14 16 15 17 15 24 20 21 21 20
10 10 10 10 9 7 6 6 7 7 9 5 4 6 3 4 7 8 10 16 13 10 10 10 9 6 4 14 14 12 14 16 16 17 15 14 17 12 10 12 15 18 17 21 24 21 16
13 14 13 15 13 11 10 8 7 8 10 7 6 4 1 4 8 11 11 12 11 9 10 11 11 10 6 7 7 8 8 13 17 21 18 17 16 11 11 12 16 15 18 17 11 13 15
18 18 18 18 16 15 13 11 11 9 9 8 8 6 1 3 6 12 10 9 8 8 10 10 11 6 4 2 3 4 5 7 7 9 23 21 18 15 10 10 17 18 22 20 12 5 22
24 24 24 23 22 21 20 18 14 12 10 10 9 8 7 4 9 10 4 5 6 7 6 7 5 7 6 3 8 9 8 12 6 8 10 18 19 17 15 15 13 17 15 5 9 9 6
30 30 30 27 26 24 23 21 20 16 13 11 13 9 10 3 10 10 9 8 8 7 6 6 4 4 6 6 4 7 9 12 15 21 21 17 8 16 18 14 20 21 17 12 15 7 5
23 33 33 33 29 27 23 24 23 19 15 13 14 11 10 5 5 13 13 16 16 16 10 9 9 12 5 4 5 4 6 4 12 12 19 18 17 6 10 12 9 8 15 14 14 13 10
Wind_Direction
238 237 238 241 242 245 246 247 247 246 249 250 248 253 256 259 264 267 267 277 287 296 309 320 330 335 342 306 262 281 297 300 286 277 278 292 292 290 281 282 285 273 274 269 275 266 275
238 238 238 241 243 245 245 246 247 248 249 251 253 254 255 258 263 264 268 272 280 288 297 311 322 330 307 281 270 212 269 270 272 283 274 274 272 305 305 274 273 285 287 292 289 284 260
248 241 240 239 241 244 245 247 247 247 248 249 251 251 255 257 257 264 267 274 279 287 294 304 315 323 279 254 279 286 287 275 267 271 276 277 284 268 293 300 288 290 285 274 264 255 249
247 250 248 240 239 242 245 248 248 248 248 249 249 251 252 254 256 259 265 267 273 281 286 297 303 305 264 267 265 268 268 269 258 252 258 266 275 270 267 277 284 279 266 270 268 252 229
245 245 246 245 242 241 243 245 247 247 245 248 248 248 252 254 257 260 264 268 270 279 287 290 292 224 276 276 248 255 251 254 253 250 248 247 251 253 262 251 261 244 255 257 266 251 215
247 245 244 239 245 242 244 246 243 242 240 243 247 248 250 252 255 255 257 259 268 279 281 256 250 283 241 247 264 226 242 224 226 228 222 221 225 243 224 237 239 250 244 235 246 269 203
243 246 244 242 240 244 245 247 244 239 237 232 239 248 254 256 251 252 254 271 278 241 223 217 200 233 253 223 300 242 218 213 241 234 225 202 216 228 231 226 237 257 272 285 289 298 304
237 239 239 238 235 227 218 223 240 229 240 241 238 247 253 253 257 253 222 202 241 326 289 232 254 252 252 275 272 234 213 216 217 228 227 239 228 241 245 246 252 253 268 271 276 273 275
241 232 230 230 229 220 219 219 208 217 220 235 242 242 242 240 216 194 205 214 277 9 268 257 242 241 238 241 251 237 244 216 237 226 234 231 239 225 239 256 260 253 247 264 275 285 286
145 195 231 229 223 223 224 216 210 210 215 229 230 227 202 164 170 175 215 218 226 240 275 267 216 248 230 219 257 244 235 244 231 246 243 247 253 265 265 251 255 265 263 259 258 268 267
54 68 90 173 201 216 215 218 219 211 210 212 200 185 165 157 155 167 34 148 153 127 270 78 128 77 197 192 236 192 228 229 238 238 238 249 247 241 250 254 259 260 272 266 281 288 296
62 48 50 58 105 154 175 183 195 197 188 181 168 166 170 172 156 154 103 126 99 176 237 186 144 189 180 208 237 107 237 219 225 248 250 258 259 269 280 259 261 277 269 270 258 264 258
75 49 34 44 59 67 165 158 168 165 170 173 171 174 173 166 165 176 144 104 128 215 246 178 184 179 199 189 215 228 196 191 200 219 241 246 250 255 256 256 249 265 247 243 238 221 246
107 140 15 17 45 58 56 184 211 195 195 187 188 183 182 170 182 168 134 58 214 237 252 4 44 179 216 219 205 205 231 213 217 238 273 263 248 223 226 234 234 234 229 237 233 245 261
125 119 142 154 182 166 125 221 235 232 229 206 197 186 178 173 171 165 151 191 212 236 298 141 290 257 244 226 269 217 230 238 238 208 236 281 245 85 350 235 213 236 251 242 264 279 299
108 129 163 101 129 131 149 141 153 224 219 205 167 153 155 195 175 172 206 223 226 255 308 283 238 282 255 247 234 232 236 17 252 262 252 278 284 282 110 19 282 256 270 279 80 226 240
113 112 114 124 169 123 122 121 269 5 50 175 124 132 20 167 174 214 203 222 225 267 311 260 252 249 260 254 276 245 254 18 303 317 306 288 268 270 268 202 255 235 240 251 254 180 257
106 108 109 116 106 129 135 127 120 168 134 33 23 143 326 153 186 254 219 218 256 254 206 231 263 280 278 280 277 259 243 46 320 330 281 91 316 280 270 259 334 310 298 270 244 241 244
89 104 114 105 99 117 128 160 171 160 112 98 78 71 327 123 198 227 236 231 255 247 252 207 235 241 252 255 246 239 255 130 164 241 329 32 288 282 273 280 263 343 350 358 331 297 246
99 101 97 102 164 152 170 200 187 186 213 116 145 130 269 55 132 307 235 243 231 247 262 269 269 265 256 249 240 246 250 220 205 217 138 237 212 220 248 222 131 186 306 5 66 326 323
162 167 138 131 145 250 275 264 205 207 224 300 111 200 203 208 181 239 308 335 80 322 0 287 307 242 240 239 249 253 247 244 190 181 184 227 237 237 246 256 198 209 222 236 239 235 220
222 213 212 210 212 207 219 239 248 234 207 221 192 228 156 226 235 181 79 296 2 86 22 356 25 358 359 295 242 271 299 274 224 207 214 218 237 249 255 252 220 223 234 235 236 233 226
214 219 214 223 225 224 232 236 233 222 191 317 316 310 330 326 219 186 204 234 259 318 229 215 313 328 343 26 343 319 286 262 245 265 237 232 244 234 241 245 259 243 244 249 241 239 237
232 225 228 223 225 226 222 234 232 231 207 243 244 254 220 262 231 233 232 225 237 252 251 278 275 291 336 333 308 301 280 267 257 252 248 246 226 234 247 245 244 244 242 234 240 246 255
240 236 238 234 231 231 232 230 233 237 226 269 260 251 336 268 279 274 254 198 207 217 206 249 261 277 117 310 332 308 254 232 242 241 242 230 244 238 234 235 249 273 234 238 231 246 255
244 240 236 232 226 226 229 229 230 233 235 247 269 250 271 268 249 259 274 285 276 256 216 234 243 233 292 273 231 248 245 300 234 219 223 235 232 241 216 234 242 242 242 250 257 210 252
242 238 235 233 232 232 231 226 224 224 226 227 244 235 258 244 273 288 276 271 249 257 259 272 274 161 174 226 243 251 255 270 266 275 246 214 229 234 239 245 248 251 242 204 210 241 262
241 238 234 230 228 225 223 222 221 218 217 215 239 239 234 248 269 292 285 278 268 265 266 277 309 249 164 218 237 242 246 253 257 252 260 260 236 227 227 237 243 238 252 186 214 267 261
253 236 229 226 224 224 221 217 218 214 211 212 247 224 231 243 277 300 286 279 284 287 289 284 265 252 209 241 235 266 259 269 268 264 255 249 246 236 235 236 254 252 238 257 206 200 208